Overview Statistics Trail Chart Weather Telemetry Raw packets
 

This is the latest recevied weather packets stored in our database for station/object KG5MMT-15. If no packets are shown the sender has not sent any weather packets the latest 10 day(s).

<< 9 10 11 12 13 14 15 >>
Time Temp. Humidity Pressure Rain* Wind** Luminosity Snow
1788631059 26.11° C 35% 0 hPa 0 mm - - -
1788630759 26.11° C 35% 0 hPa 0 mm - - -
1788630459 26.11° C 36% 0 hPa 0 mm - - -
1788630159 25.56° C 37% 0 hPa 0 mm - - -
1788629859 25.56° C 38% 0 hPa 0 mm - - -
1788629560 25.56° C 37% 0 hPa 0 mm - - -
1788629260 25.56° C 38% 0 hPa 0 mm - - -
1788628959 26.11° C 36% 0 hPa 0 mm - - -
1788628660 26.11° C 36% 0 hPa 0 mm - - -
1788628360 26.11° C 39% 0 hPa 0 mm - - -
1788628060 26.11° C 37% 0 hPa 0 mm - - -
1788627760 25.56° C 39% 0 hPa 0 mm - - -
1788627460 25° C 39% 0 hPa 0 mm - - -
1788627160 24.44° C 41% 0 hPa 0 mm - - -
1788626860 25° C 41% 0 hPa 0 mm - - -
1788626560 24.44° C 42% 0 hPa 0 mm - - -
1788626260 23.89° C 43% 0 hPa 0 mm - - -
1788625973 23.33° C 46% 0 hPa 0 mm - - -
1788625660 22.78° C 45% 0 hPa 0 mm - - -
1788625360 22.78° C 47% 0 hPa 0 mm - - -
1788625060 22.78° C 47% 0 hPa 0 mm - - -
1788624760 22.78° C 48% 0 hPa 0 mm - - -
1788624460 22.78° C 48% 0 hPa 0 mm - - -
1788624160 22.78° C 48% 0 hPa 0 mm - - -
1788623860 22.78° C 49% 0 hPa 0 mm - - -

* Rain latest hour (hover to see other rain measurements)
** Current wind speed in m/s (hover to see current wind gust speed)